DECAYED

STARLINK-3722, 52089 (Decayed)

Orbit data source: Space-Track

STARLINK-3722, 52089 was a payload satellite owned by SpaceX/Seattle (US) in LEO that was launched on Sat, 19 Mar 2022 UTC via an FALCON 9 launch vehicle from the Air Force Eastern Test Range (AFETR). Payload-class satellites include a variety of spacecraft equipped with specific instruments for various scientific and technological missions. These include communications satellites like Starlink; space stations such as the ISS; scientific satellites like the Hubble; Earth observation satellites from companies like Planet Labs, Umbra, and HawkEye 360; GPS; miniature CubeSats for education and research; and military/defense satellites.

Not visible in the next 10 days
Identifier
52089, 2022-029B
Orbit
Decayed
Country
Flag of USUS
Related business
Manufacturer
SpaceX/Seattle
Mission
Decayed Commercial Communications
Bus & Motor
STARLINK, Unknown motor
Mass
297 kg wet, ~275 kg dry
Launch date (UTC)
2022-03-19 (4 years ago)
Launch vehicle
FALCON 9
Launch site
Air Force Eastern Test Range (AFETR)
Object type
Payload
Rocket body
Debris
Shape & HBR
Box + 1 Pan, 10.1 m
Radar Cross Section
13.562 m², Large (>1 m²)

Expand to show TLE details & history
Last TLE update: 6 months ago

TLE from 6 months ago
0 STARLINK-3722
1 52089U 22029B   25347.16699378  .12697069  12600-4  21819-3 0  9996
2 52089  53.2011  81.6584 0005316 296.3895  63.6611 16.47617421208098
Epoch: 2025-12-13T04:00Z
TLE epoch observation values (Epoch: 2025-12-13T04:00:28.262Z)
Latitude
-0.00002°
Longitude
-60.55753°
Altitude
145.03 km
Speed
7.821 km/s
True Right ascension
05h 26m 38s
True Declination
0° 00' 00"
Sunlit
Object was in full shadow at epoch
Visualization orbit readout
Latitude
Unknown
Longitude
Unknown
Altitude
Unknown
Speed
Unknown
Apparent Right ascension
Unknown
Apparent Declination
Unknown
Sunlit
N/A
Visualization observer readout
Local Sidereal Time
21:29:49
Azimuth
Unknown
Elevation
Unknown
Doppler factor
Unknown
Orbital elements
Apogee altitude
149.347 km
Perigee altitude
142.411 km
Semi-major axis
6,524.016 km
Eccentricity
0.00053
Inclination
53.2011°
RAAN
81.6584°
Arg. of periapsis
296.3895°
True anomaly
63.71571°
Mean anomaly
63.6611°
Eccentric anomaly
63.6884°
Mean motion
4.1188 °/min
Orbital period
87.4 mins
BSTAR
0.00021819
Loading maneuver chart data...
Computing Atmospheric mass density...
Loading historical data...
Loading historical data...
Loading historical data...
Loading historical data...
Loading historical data...
Loading historical data...
Loading historical data...

Documentation

Showing up to 5 results
|